[[{"header":{"parameterUnit":"m.s-1","parameterCategory":1,"la1":30.2991,"la2":30.254,"lo1":-89.0895,"lo2":-89.0444,"dy":0.0017,"dx":0.0017,"nx":28,"ny":28,"refTime":"2025-12-10T09:00:00:Z","depth":0,"parameterNumber":2,"parameterNumberName":"U-component_of_WINDS"},"data":[0,0,0,0,0,0,0,0,0,0,0,0,0,0,0,0,0,0,0,0,0,0,0,0,0,0,0,0,0,0,0,0,0,0,0,0,0,0,0,0,0,0,0,0,0,0,0,0,0,0,0,0,0,0,0,0,0,0,-0.9056,-0.9056,0,-0.9082,-0.9082,-0.9083,-0.905,-0.9049,-0.9048,-0.9046,-0.9075,-0.9077,-0.9079,0,0,0,0,0,0,0,0,0,0,0,0,0,-0.898,-0.8982,-0.9056,-0.9056,-0.9057,-0.9082,-0.9082,-0.9083,-0.905,-0.9049,-0.9047,-0.9046,-0.9075,-0.9077,-0.9079,0,0,0,0,0,0,0,0,0,0,0,0,0,-0.9011,-0.8982,-0.9056,-0.9043,-0.9043,-0.9082,-0.9082,-0.9083,-0.9051,-0.9049,-0.9047,-0.9045,-0.9074,-0.9077,-0.9079,-0.9133,0,0,-0.9088,-0.9089,0,0,0,0,0,0,0,0,-0.9009,-0.9013,-0.9045,-0.9044,-0.9043,-0.9061,-0.9066,-0.91,-0.9051,-0.9048,-0.9046,-0.9044,-0.9072,-0.9075,-0.9084,-0.9134,-0.9135,-0.9088,-0.909,-0.9091,-0.9092,0,0,0,0,0,0,0,-0.9007,-0.9012,-0.9066,-0.9045,-0.9045,-0.9037,-0.904,-0.9072,-0.907,-0.9048,-0.9045,-0.9049,-0.9071,-0.9081,-0.9084,-0.9136,-0.9088,-0.9091,-0.9092,-0.9094,-0.9232,-0.9234,0,0,0,0,0,0,-0.9006,-0.9011,-0.9066,-0.9067,-0.9021,-0.904,-0.9043,-0.9057,-0.9069,-0.9069,-0.905,-0.9047,-0.9077,-0.9081,-0.9085,-0.9149,-0.9091,-0.9094,-0.9095,-0.923,-0.9233,-0.9235,0,0,0,0,0,0,-0.9004,-0.9011,-0.9064,-0.9038,-0.9044,-0.9043,-0.906,-0.9059,-0.9068,-0.9071,-0.9071,-0.9061,-0.9076,-0.9081,-0.9121,-0.9149,-0.9095,-0.9098,-0.9228,-0.9231,-0.9234,-0.9277,0,0,0,0,0,0,-0.9002,-0.9011,-0.9031,-0.9039,-0.9046,-0.91,-0.9062,-0.906,-0.9073,-0.9069,-0.9081,-0.9081,-0.9075,-0.9117,-0.9124,-0.9152,-0.91,-0.9225,-0.9229,-0.9233,-0.9273,-0.9281,-0.9288,0,0,0,0,0,-0.9,-0.9042,-0.9032,-0.9039,-0.9071,-0.9101,-0.9105,-0.9097,-0.9075,-0.9096,-0.9098,-0.9081,-0.9145,-0.9122,-0.9129,-0.9159,-0.9224,-0.9228,-0.9233,-0.927,-0.9279,-0.9288,0,0,0,0,0,0,-0.9038,-0.9043,-0.9032,-0.9077,-0.9089,-0.9096,-0.9121,-0.9108,-0.9126,-0.9122,-0.9111,-0.9114,-0.9157,-0.9162,-0.9135,-0.9211,-0.9181,-0.9187,-0.9207,-0.9216,-0.9223,-0.9221,-0.9102,0,0,0,0,0,-0.9051,-0.9075,-0.9079,-0.9119,-0.9125,-0.9122,-0.9135,-0.9128,-0.914,-0.9145,-0.9149,-0.9162,-0.9185,-0.9201,-0.9222,-0.9274,-0.9276,-0.9298,-0.9305,-0.9311,-0.9317,-0.9345,-0.9355,-0.925,-0.925,-0.9249,0,0,-0.908,-0.9086,-0.9101,-0.9127,-0.9135,-0.916,-0.9127,-0.9155,-0.9174,-0.9149,-0.9187,-0.9191,-0.9205,-0.9251,-0.9271,-0.9256,-0.9346,-0.9317,-0.9322,-0.9324,-0.9351,-0.936,-0.9369,-0.9253,-0.9252,-0.9252,0,0,-0.9145,-0.9151,-0.9186,-0.9195,-0.9207,-0.9205,-0.9213,-0.9222,-0.9224,-0.9261,-0.9243,-0.9266,-0.9306,-0.9317,-0.9328,-0.9397,-0.9383,-0.9405,-0.9444,-0.9471,-0.948,-0.9487,-0.9512,-0.9522,-0.941,-0.941,-0.941,0,-0.9179,-0.9216,-0.9205,-0.9235,-0.9247,-0.9225,-0.926,-0.927,-0.9289,-0.9298,-0.9281,-0.9331,-0.9339,-0.9387,-0.9404,-0.9413,-0.9423,-0.9403,-0.9479,-0.9486,-0.9493,-0.9517,-0.9527,-0.9413,-0.9413,-0.9412,-0.9412,0,-0.9258,-0.9284,-0.931,-0.9329,-0.9344,-0.9376,-0.9371,-0.9388,-0.9379,-0.9379,-0.9419,-0.9427,-0.945,-0.9461,-0.9453,-0.9509,-0.9499,-0.9481,-0.945,-0.9506,-0.9528,-0.9538,-0.9417,-0.9416,-0.9415,-0.9414,0,0,-0.9347,-0.936,-0.937,-0.9378,-0.939,-0.9411,-0.9443,-0.9465,-0.9479,-0.9494,-0.9521,-0.9555,-0.9538,-0.955,-0.9543,-0.9568,-0.9623,-0.9546,-0.9547,-0.9561,-0.9686,-0.97,-0.9711,-0.9613,-0.9615,-0.9616,-0.9685,0,-0.9413,-0.9467,-0.9459,-0.9512,-0.9536,-0.9516,-0.9543,-0.9555,-0.9556,-0.9577,-0.9578,-0.9603,-0.9579,-0.9586,-0.9609,-0.9611,-0.9648,-0.9606,-0.9639,-0.964,-0.9637,-0.9722,-0.9737,-0.9801,-0.9693,-0.9695,-0.9696,0,-0.9497,-0.9513,-0.9568,-0.9577,-0.9587,-0.9612,-0.9632,-0.9653,-0.9665,-0.9664,-0.9678,-0.9667,-0.97,-0.9668,-0.9713,-0.9685,-0.9698,-0.9702,-0.9704,-0.9707,-0.9672,-0.9728,-0.9821,-0.9831,-0.971,-0.9709,-0.9708,0,-0.9557,-0.9593,-0.9631,-0.9639,-0.965,-0.9668,-0.9674,-0.9685,-0.9699,-0.9716,-0.9725,-0.9747,-0.9758,-0.9776,-0.9771,-0.9748,-0.9818,-0.9786,-0.9819,-0.9819,-0.9834,-0.9833,-0.9931,-0.9842,-0.9842,-0.9842,-0.9842,0,-0.9631,-0.9666,-0.9659,-0.9682,-0.9721,-0.9711,-0.9749,-0.9753,-0.9762,-0.9787,-0.977,-0.9794,-0.9786,-0.9809,-0.9805,-0.9844,-0.9849,-0.985,-0.9849,-0.9852,-0.9852,-0.986,-0.9856,-0.9844,-0.9844,-0.9843,-0.9843,0,-0.9706,-0.9702,-0.9742,-0.9749,-0.9752,-0.978,-0.9787,-0.9809,-0.9808,-0.9839,-0.9846,-0.9846,-0.9872,-0.9869,-0.9899,-0.9896,-0.9945,-0.9938,-0.994,-0.9939,-0.9972,-0.9969,-1.0079,-1.0094,-0.9995,-0.9996,-0.9996,0,-0.9754,-0.978,-0.979,-0.9804,-0.9811,-0.9835,-0.9849,-0.9841,-0.9856,-0.9873,-0.9893,-0.9918,-0.9937,-0.9981,-0.9984,-1.0007,-1.0,-1.0037,-1.0004,-1.0006,-1.0002,-1.0,-1.0003,-1.0044,-1.0045,-1.0046,-1.0047,0,-0.9839,-0.9836,-0.9856,-0.9876,-0.9893,-0.9909,-0.9923,-0.9936,-0.9929,-0.9947,-0.9974,-0.9989,-1.0019,-1.0044,-1.0066,-1.0072,-1.0059,-1.0058,-1.0067,-1.007,-1.0071,-1.0071,-0.9959,-1.0055,-1.0054,-1.0054,-1.0053,-1.0053,-0.9902,-0.9924,-0.9935,-0.9958,-0.9968,-0.9981,-1.0003,-1.0005,-1.0027,-1.005,-1.0044,-1.0074,-1.0087,-1.0114,-1.0123,-1.0147,-1.0134,-1.0146,-1.015,-1.0153,-1.0157,-1.0066,-1.0151,-1.0151,-1.015,-1.015,-1.015,0,-0.9987,-0.9993,-1.0015,-1.0034,-1.0053,-1.0038,-1.0053,-1.007,-1.0096,-1.0109,-1.0128,-1.0159,-1.0183,-1.0188,-1.0211,-1.023,-1.0224,-1.0236,-1.0235,-1.0237,-1.0168,-1.0158,-1.024,-1.024,-1.024,-1.024,-1.024,-1.024,-1.0034,-1.0071,-1.0069,-1.0112,-1.0117,-1.0146,-1.0156,-1.0169,-1.0178,-1.0213,-1.0233,-1.0236,-1.0246,-1.027,-1.0292,-1.0293,-1.0302,-1.0317,-1.0316,-1.0251,-1.0242,-1.0233,-1.0224,-1.0319,-1.0319,-1.0383,-1.0383,-1.0384]},{"header":{"parameterUnit":"m.s-1","parameterCategory":1,"la1":30.2991,"la2":30.254,"lo1":-89.0895,"lo2":-89.0444,"dy":0.0017,"dx":0.0017,"nx":28,"ny":28,"refTime":"2025-12-10T09:00:00:Z","depth":0,"parameterNumber":3,"parameterNumberName":"V-component_of_WINDS"},"data":[0,0,0,0,0,0,0,0,0,0,0,0,0,0,0,0,0,0,0,0,0,0,0,0,0,0,0,0,0,0,0,0,0,0,0,0,0,0,0,0,0,0,0,0,0,0,0,0,0,0,0,0,0,0,0,0,0,0,2.1408,2.1408,0,2.1405,2.1405,2.1405,2.1373,2.1372,2.1372,2.1371,2.1367,2.1368,2.1369,0,0,0,0,0,0,0,0,0,0,0,0,0,2.1384,2.1385,2.1408,2.1408,2.1408,2.1405,2.1405,2.1405,2.1373,2.1372,2.1371,2.137,2.1367,2.1368,2.1369,0,0,0,0,0,0,0,0,0,0,0,0,0,2.1389,2.1385,2.1408,2.1392,2.139,2.1405,2.1405,2.1405,2.1374,2.1372,2.1371,2.137,2.1367,2.1368,2.1369,2.1399,0,0,2.1372,2.1372,0,0,0,0,0,0,0,0,2.1389,2.139,2.1394,2.1393,2.1391,2.1388,2.1395,2.1403,2.1374,2.138,2.1371,2.1369,2.1375,2.1375,2.1378,2.1399,2.1398,2.1372,2.1372,2.1373,2.1373,0,0,0,0,0,0,0,2.1389,2.139,2.1407,2.1394,2.1392,2.1384,2.1383,2.1397,2.1384,2.1379,2.1377,2.1377,2.1374,2.1377,2.1377,2.1398,2.1372,2.1373,2.1373,2.1374,2.1442,2.1443,0,0,0,0,0,0,2.1391,2.139,2.1407,2.1407,2.1387,2.1385,2.1385,2.139,2.1384,2.1382,2.1378,2.1376,2.1376,2.1376,2.1377,2.141,2.1373,2.1374,2.1374,2.1441,2.1442,2.1444,0,0,0,0,0,0,2.139,2.1393,2.1407,2.1398,2.1399,2.1387,2.1394,2.1391,2.1393,2.1383,2.1381,2.1383,2.1375,2.1376,2.1393,2.141,2.1374,2.1375,2.1439,2.1441,2.1443,2.1478,0,0,0,0,0,0,2.139,2.1393,2.1404,2.1398,2.14,2.1424,2.1395,2.1392,2.1395,2.1392,2.1387,2.1385,2.1374,2.1392,2.1394,2.141,2.1376,2.1438,2.144,2.1442,2.1475,2.1481,2.1486,0,0,0,0,0,2.1389,2.1415,2.1405,2.1407,2.1414,2.1425,2.1426,2.1412,2.1397,2.1408,2.1401,2.1385,2.1408,2.1394,2.1396,2.1413,2.1437,2.144,2.1442,2.1473,2.148,2.1486,0,0,0,0,0,0,2.1423,2.1414,2.1403,2.1427,2.1427,2.142,2.1433,2.142,2.1424,2.1421,2.1404,2.1403,2.1423,2.142,2.1405,2.1441,2.1419,2.1423,2.1442,2.1448,2.1453,2.1453,2.1377,0,0,0,0,0,2.1434,2.1444,2.1435,2.1457,2.1457,2.1446,2.145,2.1439,2.1438,2.1438,2.1433,2.1432,2.1439,2.1443,2.1449,2.1475,2.1473,2.1488,2.1493,2.1497,2.15,2.1512,2.1518,2.1453,2.1453,2.1453,0,0,2.1455,2.1451,2.1459,2.1464,2.1462,2.1472,2.1446,2.1458,2.1465,2.144,2.1456,2.1452,2.145,2.1471,2.148,2.1469,2.1517,2.1501,2.1504,2.1504,2.1515,2.1521,2.1527,2.1455,2.1454,2.1454,0,0,2.1499,2.1498,2.1516,2.1514,2.1512,2.1504,2.1509,2.1503,2.1499,2.1515,2.1496,2.1504,2.1516,2.1515,2.1516,2.1558,2.1543,2.1561,2.1587,2.1599,2.1604,2.1608,2.1622,2.1627,2.1564,2.1564,2.1564,0,2.1526,2.1541,2.1526,2.1539,2.1541,2.1519,2.1536,2.1536,2.1536,2.1538,2.1525,2.1539,2.1537,2.1557,2.1567,2.1569,2.1572,2.1561,2.1605,2.1609,2.1613,2.1626,2.1631,2.1566,2.1566,2.1565,2.1565,0,2.1573,2.1584,2.1598,2.1598,2.1602,2.1617,2.1604,2.161,2.1599,2.1592,2.1607,2.1603,2.1607,2.1611,2.1601,2.1629,2.1622,2.1608,2.1585,2.1621,2.1633,2.1638,2.1569,2.1568,2.1567,2.1567,0,0,2.1639,2.163,2.1636,2.1635,2.1631,2.1638,2.1651,2.1655,2.1659,2.166,2.167,2.1681,2.1667,2.1668,2.1657,2.1668,2.1699,2.1651,2.1651,2.1659,2.1729,2.1739,2.1745,2.169,2.1691,2.1691,2.1729,0,2.1681,2.1703,2.169,2.1714,2.1723,2.1701,2.1713,2.1711,2.1704,2.171,2.1703,2.171,2.1692,2.1692,2.1701,2.1694,2.1713,2.1691,2.1698,2.1698,2.1698,2.1752,2.1763,2.1798,2.1733,2.1734,2.1735,0,2.1732,2.1734,2.1759,2.1752,2.1755,2.1766,2.1767,2.1773,2.177,2.1765,2.1766,2.1752,2.1763,2.1742,2.1757,2.1743,2.1745,2.1741,2.1742,2.1742,2.1718,2.1751,2.1809,2.1814,2.1742,2.1741,2.1741,0,2.1776,2.1785,2.1801,2.1801,2.1793,2.1801,2.1798,2.1794,2.1796,2.1798,2.1799,2.1801,2.1803,2.1805,2.1792,2.1778,2.1808,2.1786,2.1803,2.1803,2.181,2.1809,2.1868,2.1813,2.1813,2.1813,2.1813,0,2.1823,2.1839,2.182,2.183,2.1847,2.1831,2.1848,2.1842,2.1839,2.1846,2.1828,2.1835,2.1818,2.1824,2.1814,2.1827,2.1828,2.1823,2.182,2.1824,2.1824,2.1824,2.1821,2.1814,2.1814,2.1814,2.1813,0,2.1875,2.1863,2.1879,2.187,2.1868,2.188,2.1872,2.188,2.1872,2.1882,2.1883,2.187,2.1875,2.1863,2.1866,2.1859,2.1878,2.1872,2.1879,2.1877,2.1894,2.1892,2.1953,2.196,2.1902,2.1903,2.1903,0,2.1905,2.1917,2.1909,2.1912,2.191,2.1917,2.1919,2.1903,2.1906,2.1903,2.1911,2.1915,2.1917,2.1926,2.1917,2.1919,2.1912,2.1933,2.1912,2.1915,2.1911,2.191,2.191,2.1937,2.1938,2.1939,2.1939,0,2.196,2.1953,2.1957,2.1959,2.1962,2.1962,2.1962,2.1966,2.1949,2.1953,2.1958,2.1959,2.1963,2.1966,2.1966,2.1962,2.1948,2.1946,2.195,2.1953,2.1957,2.1954,2.189,2.1944,2.1944,2.1943,2.1943,2.1943,2.2001,2.201,2.2005,2.2009,2.2007,2.2006,2.2013,2.2005,2.2009,2.201,2.2001,2.2008,2.2003,2.2001,2.1999,2.2003,2.1994,2.1999,2.2001,2.2002,2.2004,2.1957,2.2004,2.2003,2.2003,2.2003,2.2003,0,2.2054,2.2049,2.2054,2.2053,2.2056,2.2042,2.204,2.2043,2.2049,2.2046,2.2048,2.2053,2.2056,2.2047,2.2048,2.2054,2.2047,2.2054,2.2053,2.2052,2.2014,2.201,2.206,2.206,2.206,2.206,2.206,2.206,2.2082,2.2095,2.2087,2.2099,2.2094,2.21,2.21,2.2099,2.2096,2.2103,2.2105,2.2099,2.2093,2.2093,2.2095,2.2092,2.2093,2.2102,2.2097,2.2061,2.2055,2.205,2.2046,2.2103,2.2103,2.2135,2.2136,2.2136]}]]